User: anonymous   Login
Location: Monroe
(41.9160°N, 83.3980°W)
Time: 09:19:12
(UTC-05:00)
Language:

deb Explorer IX - Orbit

View from above orbital plane
View from above orbital plane
View from above satellite
View from above satellite

Ground track
Ground track

The orbit data is extracted from the following two-line orbital elements,

1 00085U 61004C   14329.75097421  .00013438  00000-0  34577-2 0   761
2 00085 038.7712 238.4379 0437351 009.8498 351.0493 14.05251645642965
Epoch (UTC): 25 November 2014 18:01:24
Eccentricity: 0.0437351
inclination: 38.7712°
perigee height: 558 km
apogee height: 1193 km
right ascension of ascending node: 238.4379°
argument of perigee: 9.8498°
revolutions per day: 14.05251645
mean anomaly at epoch: 351.0493°
orbit number at epoch: 64296

The dashed part of the orbit path shows where the satellite is in the earth's shadow,  

DLR